EETU

Tartu

Airport
ICAO code
EETU
Summary
ICAO Region
EUR
ICAO Territory
Location

Reola, Ülenurme Parish,

Coordinates
58° 18' 25" N , 26° 41' 14" E
Metar
EETU 041050Z 10011KT CAVOK 05/M04 Q1023

Tartu Airport (IATA: TAY, ICAO: EETU) is an airport in Reola, Ülenurme Parish, about 8 km south of Tartu, the second largest city in Estonia. It is also called Ülenurme Airport due to its proximity to the village of Ülenurme.

Runways

Designator Length Width Surface Rops
8/26 1379 35 ASP No/No

Airport map

Aerial View

SKYbrary Partners:

Safety knowledge contributed by: